Preview of NWS' New Version of Forecast
This preview is not operational and should not be used for support decisions.

Regional Weather Roundup (RWR)

Issued by National Weather Service (NWS)

                            
000
ASUS45 KBOU 250910
RWRCO 

WEATHER ROUNDUP FOR COLORADO
NATIONAL WEATHER SERVICE DENVER/BOULDER CO
300 AM MDT THU APR 25 2019

NOTE: "FAIR" INDICATES FEW OR NO CLOUDS BELOW 12000 FEET WITH NO
SIGNIFICANT WEATHER AND/OR OBSTRUCTIONS TO VISIBILITY.

COZ001>005-013-030-031-251000-
...NORTHWEST COLORADO...
  
CITY           SKY/WX    TMP DP  RH WIND       PRES   REMARKS
CRAIG          FAIR      41  34  76 SW5       30.14R                  
HAYDEN         FAIR      45  35  68 W9        30.15S                  
MEEKER         FAIR      44  36  73 CALM      30.14S                  
RANGELY        FAIR      41  36  82 CALM      30.10S                  
RABBIT EARS PA NOT AVBL                                               
STEAMBOAT SPGS FAIR      45  35  68 NE3       30.14R                  
WALDEN         MOCLDY    39  34  81 N18       30.17R                  
$$

COZ006>008-011-251000-
...WEST CENTRAL VALLEYS...
  
CITY           SKY/WX    TMP DP  RH WIND       PRES   REMARKS
GRAND JUNCTION FAIR      52  36  54 S3        30.03S                  
MONTROSE       FAIR      48  30  49 SE10      30.10S                  
EAGLE          FAIR      45  37  73 SE6       30.15S                  
RIFLE          FAIR      48  37  65 CALM      30.09R                  
DELTA          FAIR      51  32  48 CALM      30.06S                  
NUCLA          FAIR      46  30  53 E10       30.11S                  
$$

COZ017>023-064>068-251000-
...SOUTHWEST COLORADO...
  
CITY           SKY/WX    TMP DP  RH WIND       PRES   REMARKS
DURANGO        FAIR      43  30  60 CALM      30.08S                  
CORTEZ         FAIR      40  30  67 E7        30.09S                  
PAGOSA SPRINGS FAIR      39  29  68 CALM      30.14R                  
TELLURIDE      FAIR      37  30  75 SE5       30.24F                  
WOLF CREEK PAS FAIR      32  25  74 NW8       30.35S WCI  25          
$$

COZ009-010-012-014-032>034-037-058>063-251000-
...CENTRAL COLORADO...
  
CITY           SKY/WX    TMP DP  RH WIND       PRES   REMARKS
ASPEN          CLOUDY    42  31  64 S5        30.15S                  
BUENA VISTA    FAIR      43  32  63 NW10      30.14S                  
COPPER MTN     NOT AVBL                                               
BERTHOUD PASS  CLOUDY    27  16  63 NW25G43   30.26S WCI  11          
COTTONWOOD PAS FAIR      43  28  56 N6        30.21S                  
GUNNISON       MOCLDY    36  30  79 E3        30.16F                  
GRANBY         FAIR      42  32  69 S5        30.17S                  
KREMMLING      CLOUDY    43  34  70 CALM      30.17R                  
LEADVILLE      FLURRIES  33  33 100 CALM      30.22F                  
MONARCH PASS   FAIR      32  27  80 NW15      30.41R WCI  22          
SALIDA         FAIR      46  27  48 W5        30.20R                  
SUNLIGHT       MOCLDY    34  28  80 NW5       30.32S WCI  30          
WILKERSON PASS MOCLDY    34  27  75 NW13G26   30.28S WCI  25          
$$

COZ069>075-251000-
...SAN LUIS VALLEY/SANGRE DE CRISTO MOUNTAINS...
  
CITY           SKY/WX    TMP DP  RH WIND       PRES   REMARKS
ALAMOSA        FAIR      35  31  85 SE5       30.10S WCI  31          
DEL NORTE      FAIR      43  28  56 W12       30.14S                  
LA VETA PASS   NOT AVBL                                               
SAGUACHE       FAIR      41  32  70 NW6       30.13S                  
$$

COZ035-036-038>040-251000-
...NORTHERN COLORADO FRONT RANGE...
  
CITY           SKY/WX    TMP DP  RH WIND       PRES   REMARKS
DENVER INTL AP CLOUDY    46  40  79 N24G35    30.12R                  
AURORA         CLOUDY    44  41  87 N22G30    30.13R                  
FRONT RANGE AP CLOUDY    47  41  80 N25G32    30.11R                  
ERIE MUNI ARPT CLOUDY    47  37  68 N13G21    30.19R                  
BOULDER MUN AP CLOUDY    46  36  66 NE17G26   30.14R                  
CENTENNIAL     CLOUDY    46  41  82 N25G36    30.11R                  
BROOMFIELD     CLOUDY    45  37  76 N20       30.14R                  
FORT COLLINS   FAIR      45  36  70 N21G28    30.10R                  
LONGMONT       CLOUDY    49  37  63 NE13G21   30.14R                  
$$

COZ041-046-047-076>085-087-088-251000-
...PIKES PEAK/PALMER DIVIDE AND SOUTHERN FOOTHILLS...
  
CITY           SKY/WX    TMP DP  RH WIND       PRES   REMARKS
COLO. SPRINGS  FAIR      53  29  39 N13       30.01R                  
A. F. ACADEMY  FAIR      49  31  50 N32G38    30.05R                  
SCHRIEVER AFB  NOT AVBL                                               
CHEYENNE MTN   NOT AVBL                                               
ELLICOTT         N/A    N/A N/A N/A N20G25    30.00R                  
FALCON         FAIR      50  32  50 N21G33    30.07R                  
FORT CARSON    FAIR      47  31  52 NW7       29.98R                  
LIMON          FAIR      48  43  82 N31G43    29.99R                  
MONUMENT HILL  FOG       41  41 100 N26G35    30.12R VSB 1/2          
CANON CITY     NOT AVBL                                               
WALSENBURG     NOT AVBL                                               
TRINIDAD       FAIR      46  36  68 W14       29.97S                  
$$

COZ042>045-048>051-090-091-251000-
...NORTHEAST COLORADO...
  
CITY           SKY/WX    TMP DP  RH WIND       PRES   REMARKS
GREELEY ARPT   FAIR      46  38  73 N18G29    30.09R                  
AKRON          LGT RAIN  44  42  93 N33G47    30.04R FOG              
BURLINGTON     MOCLDY    54  42  64 N5        29.89F                  
WRAY           MOCLDY    50  45  81 N21G29    29.99R                  
YUMA           NOT AVBL                                               
STERLING       CLOUDY    46  43  87 N18G28    30.04R                  
HOLYOKE        CLOUDY    54  48  82 N26G36    30.01R                  
FORT MORGAN      N/A     46  38  76 N28G37    30.05R                  
$$

COZ086-089-092>099-251000-
...SOUTHEAST COLORADO...
  
CITY           SKY/WX    TMP DP  RH WIND       PRES   REMARKS
PUEBLO         FAIR      50  34  54 W6        29.93S                  
LA JUNTA       FAIR      49  34  56 W9        29.89S                  
LAMAR          FAIR      45  35  68 MISG      29.85R                  
SPRINGFIELD      N/A     41  37  86 W5        29.88S                  
$$